Location: *
(46.1333°S, 161.2167°W)
Time: 04:20:27
(UTC+00:00)

Cosmos 1461 - Pass Details

Date: 15 July 2020
Orbit: 502 x 664 km, 65.0° (Epoch: 10 August)

Event Time Altitude Azimuth Distance (km) Brightness Sun altitude
Exits shadow 17:03:00 20° 275° (W) 1,236 4.0 -13.2°
Maximum altitude 17:03:52 21° 294° (WNW) 1,176 4.1 -13.1°
Drops below altitude 10° 17:06:50 10° 345° (NNW) 1,727 5.4 -12.6°
Sets 17:09:20 0° 0° (N) 2,612 6.5 -12.2°
